TimeCDT,TemperatureF,Dew PointF,Humidity,Sea Level PressureIn,VisibilityMPH,Wind Direction,Wind SpeedMPH,Gust SpeedMPH,PrecipitationIn,Events,Conditions,WindDirDegrees,DateUTC
12:27 AM,53.6,42.8,67,30.21,10.0,NE,9.2,-,N/A,,Overcast,40,2012-10-08 05:27:00
12:53 AM,51.8,42.8,71,30.21,10.0,North,8.1,-,N/A,,Overcast,10,2012-10-08 05:53:00
12:55 AM,52.2,42.4,69,30.21,10.0,NNE,11.5,-,N/A,,Overcast,20,2012-10-08 05:55:00
1:12 AM,51.8,42.8,71,30.21,10.0,NE,10.4,-,N/A,,Mostly Cloudy,40,2012-10-08 06:12:00
1:13 AM,51.8,42.8,71,30.21,10.0,NE,9.2,-,N/A,,Mostly Cloudy,40,2012-10-08 06:13:00
1:17 AM,51.8,42.8,71,30.21,10.0,NE,8.1,-,N/A,,Mostly Cloudy,40,2012-10-08 06:17:00
1:55 AM,52.0,41.9,69,30.22,10.0,NE,6.9,-,N/A,,Mostly Cloudy,40,2012-10-08 06:55:00
1:57 AM,51.8,41.0,67,30.22,10.0,NNE,9.2,-,N/A,,Mostly Cloudy,30,2012-10-08 06:57:00
2:55 AM,51.6,41.2,68,30.21,10.0,NE,6.9,-,N/A,,Overcast,40,2012-10-08 07:55:00
3:49 AM,51.8,41.0,67,30.20,10.0,NE,4.6,-,N/A,,Scattered Clouds,40,2012-10-08 08:49:00
3:53 AM,51.8,41.0,67,30.20,10.0,NNE,5.8,-,N/A,,Mostly Cloudy,30,2012-10-08 08:53:00
3:55 AM,51.6,41.0,67,30.20,10.0,NE,6.9,-,N/A,,Mostly Cloudy,40,2012-10-08 08:55:00
4:12 AM,51.8,41.0,67,30.19,10.0,NE,6.9,-,N/A,,Mostly Cloudy,40,2012-10-08 09:12:00
4:48 AM,51.8,41.0,67,30.20,10.0,NE,6.9,-,N/A,,Overcast,40,2012-10-08 09:48:00
4:55 AM,52.0,40.1,64,30.20,10.0,NE,6.9,-,N/A,,Overcast,50,2012-10-08 09:55:00
5:33 AM,51.8,41.0,67,30.20,10.0,NNE,5.8,-,N/A,,Scattered Clouds,20,2012-10-08 10:33:00
5:55 AM,52.0,39.6,63,30.20,10.0,NNE,8.1,-,N/A,,Mostly Cloudy,20,2012-10-08 10:55:00
6:55 AM,52.0,39.0,61,30.21,10.0,NNE,5.8,-,N/A,,Mostly Cloudy,30,2012-10-08 11:55:00
7:55 AM,51.1,39.7,65,30.22,10.0,NNE,8.1,-,N/A,,Mostly Cloudy,30,2012-10-08 12:55:00
8:55 AM,53.1,41.2,64,30.23,10.0,North,8.1,-,N/A,,Overcast,10,2012-10-08 13:55:00
9:55 AM,54.3,42.1,63,30.25,10.0,NNE,9.2,-,N/A,,Overcast,30,2012-10-08 14:55:00
10:55 AM,55.6,43.3,63,30.24,10.0,NNE,8.1,-,N/A,,Overcast,30,2012-10-08 15:55:00
11:55 AM,58.6,45.3,61,30.23,10.0,ENE,4.6,-,0.03,,Overcast,60,2012-10-08 16:55:00
12:55 PM,62.2,46.9,57,30.20,10.0,ENE,5.8,-,N/A,,Clear,60,2012-10-08 17:55:00
1:55 PM,64.8,48.6,56,30.16,10.0,East,6.9,-,N/A,,Clear,100,2012-10-08 18:55:00
2:55 PM,66.0,49.8,56,30.13,10.0,Calm,Calm,-,N/A,,Clear,0,2012-10-08 19:55:00
3:55 PM,67.8,50.2,53,30.11,10.0,Calm,Calm,-,N/A,,Clear,0,2012-10-08 20:55:00
4:55 PM,67.8,50.5,54,30.10,10.0,Calm,Calm,-,N/A,,Clear,0,2012-10-08 21:55:00
5:55 PM,67.6,51.6,56,30.09,10.0,ESE,5.8,-,N/A,,Clear,120,2012-10-08 22:55:00
6:55 PM,63.5,54.0,71,30.09,10.0,SE,3.5,-,N/A,,Partly Cloudy,130,2012-10-08 23:55:00
7:55 PM,63.0,54.7,74,30.09,10.0,Calm,Calm,-,N/A,,Mostly Cloudy,0,2012-10-09 00:55:00
8:55 PM,60.8,53.2,76,30.10,10.0,SE,4.6,-,N/A,,Mostly Cloudy,130,2012-10-09 01:55:00
9:55 PM,61.2,54.9,80,30.11,10.0,SSE,6.9,-,N/A,,Overcast,160,2012-10-09 02:55:00
10:55 PM,60.4,54.1,80,30.10,10.0,SSE,5.8,-,N/A,,Mostly Cloudy,160,2012-10-09 03:55:00
11:03 PM,60.8,53.6,77,30.10,10.0,South,5.8,-,N/A,,Overcast,170,2012-10-09 04:03:00
11:34 PM,62.6,53.6,72,30.08,10.0,SE,5.8,-,N/A,,Overcast,140,2012-10-09 04:34:00
11:55 PM,61.5,53.8,76,30.09,10.0,South,6.9,-,N/A,,Overcast,180,2012-10-09 04:55:00